SWR73Q EDDF-LSZH

Flight info

Callsign SWR73Q
Flight time 0h 47m
Altitude 21000
Route ANEKI2L/18 ANEKI Y163 NEKLO Y171 INKAM T725 LAMGO T721 RILAX
Aircraft A321/M-SDE3FGHIRWY/LB1

Departure

Time 2026-05-05 18:32
Airport Frankfurt Main Airport (EDDF)

Arrival

Time 2026-05-05 19:20
Airport Zürich Airport (LSZH)
Time Latitude Longitude Altitude Speed Heading
2026-05-05 17:35 50.04823 8.57616 363 ft 0 kts 202°
2026-05-05 18:10 50.04830 8.57620 356 ft 2 kts 199°
2026-05-05 18:10 50.04845 8.57629 364 ft 2 kts 197°
2026-05-05 18:10 50.04860 8.57637 362 ft 2 kts 194°
2026-05-05 18:11 50.04876 8.57643 362 ft 2 kts 186°
2026-05-05 18:11 50.04892 8.57643 362 ft 2 kts 159°
2026-05-05 18:11 50.04905 8.57629 358 ft 2 kts 114°
2026-05-05 18:11 50.04907 8.57623 360 ft 0 kts 110°
2026-05-05 18:12 50.04905 8.57628 361 ft 3 kts 111°
2026-05-05 18:13 50.04894 8.57670 367 ft 4 kts 112°
2026-05-05 18:13 50.04876 8.57738 359 ft 9 kts 112°
2026-05-05 18:13 50.04854 8.57818 359 ft 8 kts 114°
2026-05-05 18:13 50.04807 8.57902 361 ft 13 kts 150°
2026-05-05 18:14 50.04721 8.57914 358 ft 14 kts 211°
2026-05-05 18:14 50.04672 8.57750 362 ft 16 kts 249°
2026-05-05 18:14 50.04634 8.57593 360 ft 15 kts 249°
2026-05-05 18:14 50.04596 8.57437 363 ft 16 kts 249°
2026-05-05 18:15 50.04557 8.57274 359 ft 16 kts 249°
2026-05-05 18:15 50.04509 8.57068 362 ft 25 kts 250°
2026-05-05 18:15 50.04450 8.56821 364 ft 24 kts 250°
2026-05-05 18:15 50.04390 8.56573 360 ft 25 kts 250°
2026-05-05 18:16 50.04332 8.56324 359 ft 25 kts 249°
2026-05-05 18:16 50.04272 8.56077 354 ft 24 kts 250°
2026-05-05 18:16 50.04213 8.55830 354 ft 25 kts 249°
2026-05-05 18:16 50.04152 8.55573 359 ft 25 kts 249°
2026-05-05 18:17 50.04093 8.55329 358 ft 22 kts 250°
2026-05-05 18:17 50.04045 8.55125 357 ft 20 kts 249°
2026-05-05 18:17 50.03996 8.54920 360 ft 20 kts 249°
2026-05-05 18:17 50.03943 8.54698 354 ft 22 kts 249°
2026-05-05 18:18 50.03888 8.54472 350 ft 19 kts 250°
2026-05-05 18:18 50.03829 8.54316 351 ft 16 kts 234°
2026-05-05 18:18 50.03790 8.54180 352 ft 13 kts 250°
2026-05-05 18:18 50.03758 8.54046 347 ft 13 kts 249°
2026-05-05 18:19 50.03726 8.53916 349 ft 13 kts 249°
2026-05-05 18:19 50.03695 8.53788 344 ft 12 kts 249°
2026-05-05 18:19 50.03664 8.53663 348 ft 12 kts 248°
2026-05-05 18:19 50.03630 8.53527 337 ft 18 kts 250°
2026-05-05 18:20 50.03580 8.53317 339 ft 21 kts 249°
2026-05-05 18:20 50.03543 8.53161 335 ft 12 kts 250°
2026-05-05 18:20 50.03528 8.53100 334 ft 0 kts 249°
2026-05-05 18:21 50.03526 8.53095 334 ft 3 kts 249°
2026-05-05 18:21 50.03515 8.53049 335 ft 4 kts 249°
2026-05-05 18:21 50.03504 8.53003 335 ft 6 kts 249°
2026-05-05 18:22 50.03494 8.52960 337 ft 0 kts 250°
2026-05-05 18:23 50.03484 8.52922 335 ft 9 kts 248°
2026-05-05 18:23 50.03474 8.52882 335 ft 0 kts 247°
2026-05-05 18:24 50.03472 8.52875 335 ft 1 kts 247°
2026-05-05 18:24 50.03471 8.52872 332 ft 1 kts 247°
2026-05-05 18:24 50.03454 8.52811 333 ft 7 kts 247°
2026-05-05 18:24 50.03452 8.52802 335 ft 0 kts 247°
2026-05-05 18:25 50.03435 8.52738 333 ft 3 kts 248°
2026-05-05 18:25 50.03434 8.52731 331 ft 0 kts 248°
2026-05-05 18:28 50.03432 8.52726 331 ft 2 kts 248°
2026-05-05 18:29 50.03415 8.52659 332 ft 11 kts 249°
2026-05-05 18:29 50.03387 8.52596 332 ft 5 kts 186°
2026-05-05 18:29 50.03358 8.52595 334 ft 4 kts 180°
2026-05-05 18:29 50.03356 8.52595 334 ft 0 kts 180°
2026-05-05 18:31 50.03348 8.52595 335 ft 6 kts 180°
2026-05-05 18:31 50.03085 8.52596 336 ft 73 kts 179°
2026-05-05 18:31 50.02368 8.52603 335 ft 130 kts 180°
2026-05-05 18:32 50.01306 8.52612 334 ft 173 kts 180°
2026-05-05 18:32 50.00064 8.52609 778 ft 177 kts 181°
2026-05-05 18:32 49.98834 8.52623 1411 ft 177 kts 178°
2026-05-05 18:32 49.97585 8.52702 1904 ft 185 kts 177°
2026-05-05 18:33 49.96262 8.52799 2170 ft 201 kts 177°
2026-05-05 18:33 49.94811 8.52907 2481 ft 215 kts 177°
2026-05-05 18:33 49.93278 8.53009 2839 ft 226 kts 177°
2026-05-05 18:33 49.91687 8.53119 3393 ft 231 kts 178°
2026-05-05 18:34 49.90086 8.53228 4095 ft 229 kts 178°
2026-05-05 18:34 49.88500 8.53333 4777 ft 228 kts 178°
2026-05-05 18:34 49.86918 8.53442 5402 ft 228 kts 177°
2026-05-05 18:34 49.85330 8.53568 6024 ft 229 kts 178°
2026-05-05 18:35 49.83735 8.53678 6575 ft 231 kts 178°
2026-05-05 18:35 49.82139 8.53788 7100 ft 234 kts 178°
2026-05-05 18:35 49.80503 8.53906 7654 ft 236 kts 178°
2026-05-05 18:35 49.78859 8.54026 8216 ft 237 kts 178°
2026-05-05 18:36 49.77197 8.54000 8679 ft 246 kts 186°
2026-05-05 18:36 49.75402 8.53712 8837 ft 270 kts 186°
2026-05-05 18:36 49.73491 8.53454 9368 ft 279 kts 185°
2026-05-05 18:36 49.71539 8.53214 9987 ft 285 kts 185°
2026-05-05 18:37 49.69487 8.52963 10155 ft 307 kts 185°
2026-05-05 18:37 49.67320 8.52694 10264 ft 328 kts 185°
2026-05-05 18:37 49.64973 8.52400 10386 ft 347 kts 185°
2026-05-05 18:37 49.62499 8.52085 10510 ft 365 kts 185°
2026-05-05 18:38 49.59911 8.51751 10639 ft 381 kts 185°
2026-05-05 18:38 49.57240 8.51403 10933 ft 389 kts 185°
2026-05-05 18:38 49.54533 8.51042 11376 ft 392 kts 185°
2026-05-05 18:38 49.51814 8.50681 11833 ft 394 kts 185°
2026-05-05 18:39 49.49076 8.50322 12297 ft 396 kts 185°
2026-05-05 18:39 49.46330 8.49960 12737 ft 397 kts 186°
2026-05-05 18:39 49.43570 8.49590 13188 ft 399 kts 186°
2026-05-05 18:39 49.40838 8.49228 13664 ft 399 kts 186°
2026-05-05 18:40 49.38066 8.48870 14060 ft 401 kts 186°
2026-05-05 18:40 49.35281 8.48509 14430 ft 402 kts 186°
2026-05-05 18:40 49.32478 8.48283 14789 ft 405 kts 179°
2026-05-05 18:40 49.29668 8.48727 15161 ft 408 kts 171°
2026-05-05 18:41 49.26917 8.49887 15545 ft 412 kts 161°
2026-05-05 18:41 49.24316 8.51783 15932 ft 417 kts 151°
2026-05-05 18:41 49.21851 8.54144 16319 ft 419 kts 150°
2026-05-05 18:41 49.19378 8.56536 16714 ft 422 kts 149°
2026-05-05 18:42 49.16925 8.58909 17107 ft 424 kts 149°
2026-05-05 18:42 49.14370 8.61165 17488 ft 425 kts 156°
2026-05-05 18:42 49.11657 8.62976 17869 ft 427 kts 159°
2026-05-05 18:42 49.08918 8.64754 18242 ft 429 kts 159°
2026-05-05 18:43 49.06162 8.66516 18594 ft 429 kts 161°
2026-05-05 18:43 49.03318 8.67523 19512 ft 410 kts 176°
2026-05-05 18:43 49.00578 8.67494 20303 ft 376 kts 185°
2026-05-05 18:43 48.98056 8.67165 20619 ft 357 kts 186°
2026-05-05 18:44 48.95597 8.66797 20815 ft 353 kts 186°
2026-05-05 18:44 48.93159 8.66405 20873 ft 352 kts 187°
2026-05-05 18:44 48.90755 8.66013 20876 ft 352 kts 187°
2026-05-05 18:44 48.88323 8.65620 20877 ft 351 kts 186°
2026-05-05 18:45 48.85891 8.65232 20875 ft 352 kts 186°
2026-05-05 18:45 48.83459 8.64853 20878 ft 351 kts 186°
2026-05-05 18:45 48.81027 8.64477 20876 ft 351 kts 186°
2026-05-05 18:45 48.78590 8.64106 20877 ft 352 kts 186°
2026-05-05 18:46 48.76158 8.63734 20879 ft 351 kts 186°
2026-05-05 18:46 48.73762 8.63366 20876 ft 350 kts 186°
2026-05-05 18:46 48.71342 8.62997 20877 ft 349 kts 186°
2026-05-05 18:46 48.68921 8.62628 20880 ft 350 kts 186°
2026-05-05 18:47 48.66502 8.62256 20878 ft 349 kts 186°
2026-05-05 18:47 48.64086 8.61888 20879 ft 349 kts 186°
2026-05-05 18:47 48.61667 8.61521 20879 ft 349 kts 186°
2026-05-05 18:47 48.59250 8.61154 20877 ft 349 kts 186°
2026-05-05 18:48 48.56832 8.60783 20875 ft 349 kts 186°
2026-05-05 18:48 48.54415 8.60410 20876 ft 349 kts 186°
2026-05-05 18:48 48.52008 8.60039 20640 ft 346 kts 186°
2026-05-05 18:48 48.49654 8.59677 20117 ft 344 kts 186°
2026-05-05 18:49 48.47278 8.59402 19615 ft 341 kts 184°
2026-05-05 18:49 48.44916 8.59255 19126 ft 339 kts 182°
2026-05-05 18:49 48.42570 8.59174 18662 ft 336 kts 181°
2026-05-05 18:49 48.40241 8.59108 18194 ft 333 kts 183°
2026-05-05 18:50 48.37941 8.58825 17891 ft 331 kts 186°
2026-05-05 18:50 48.35644 8.58458 17871 ft 332 kts 186°
2026-05-05 18:50 48.33344 8.58068 17876 ft 333 kts 187°
2026-05-05 18:50 48.31047 8.57671 17878 ft 332 kts 187°
2026-05-05 18:51 48.28752 8.57272 17877 ft 330 kts 187°
2026-05-05 18:51 48.26554 8.56892 17786 ft 315 kts 187°
2026-05-05 18:51 48.24422 8.56522 17651 ft 302 kts 187°
2026-05-05 18:51 48.22379 8.56169 17517 ft 289 kts 187°
2026-05-05 18:52 48.20414 8.55829 17283 ft 281 kts 187°
2026-05-05 18:52 48.18492 8.55496 16914 ft 277 kts 187°
2026-05-05 18:52 48.16581 8.55164 16515 ft 275 kts 187°
2026-05-05 18:52 48.14683 8.54836 16124 ft 274 kts 187°
2026-05-05 18:53 48.12795 8.54513 15730 ft 272 kts 187°
2026-05-05 18:53 48.10917 8.54192 15357 ft 271 kts 187°
2026-05-05 18:53 48.09080 8.53876 15005 ft 269 kts 187°
2026-05-05 18:53 48.07229 8.53555 14658 ft 267 kts 187°
2026-05-05 18:54 48.05392 8.53237 14307 ft 265 kts 187°
2026-05-05 18:54 48.03566 8.52925 13974 ft 263 kts 187°
2026-05-05 18:54 48.01754 8.52619 13874 ft 262 kts 186°
2026-05-05 18:54 47.99926 8.52480 13881 ft 264 kts 181°
2026-05-05 18:55 47.98093 8.52621 13883 ft 265 kts 175°
2026-05-05 18:55 47.96277 8.53025 13622 ft 263 kts 170°
2026-05-05 18:55 47.94505 8.53697 13211 ft 263 kts 165°
2026-05-05 18:55 47.92791 8.54633 12901 ft 261 kts 159°
2026-05-05 18:56 47.91164 8.55802 12882 ft 265 kts 154°
2026-05-05 18:56 47.89584 8.57227 12892 ft 266 kts 149°
2026-05-05 18:56 47.88098 8.58882 12815 ft 266 kts 144°
2026-05-05 18:56 47.86672 8.60628 12440 ft 265 kts 144°
2026-05-05 18:57 47.85253 8.62361 12065 ft 263 kts 143°
2026-05-05 18:57 47.83843 8.64076 11875 ft 261 kts 144°
2026-05-05 18:57 47.82430 8.65785 11886 ft 263 kts 144°
2026-05-05 18:57 47.81007 8.67504 11892 ft 263 kts 144°
2026-05-05 18:58 47.79588 8.69222 11894 ft 263 kts 143°
2026-05-05 18:58 47.78167 8.70943 11895 ft 263 kts 144°
2026-05-05 18:58 47.76746 8.72663 11893 ft 263 kts 143°
2026-05-05 18:58 47.75345 8.74359 11891 ft 263 kts 143°
2026-05-05 18:59 47.73925 8.76079 11891 ft 263 kts 143°
2026-05-05 18:59 47.72504 8.77800 11888 ft 263 kts 144°
2026-05-05 18:59 47.71085 8.79516 11891 ft 263 kts 144°
2026-05-05 18:59 47.69666 8.81231 11892 ft 263 kts 144°
2026-05-05 19:00 47.68241 8.82949 11893 ft 263 kts 144°
2026-05-05 19:00 47.66822 8.84656 11880 ft 263 kts 144°
2026-05-05 19:00 47.65409 8.86355 11890 ft 261 kts 144°
2026-05-05 19:00 47.64001 8.88049 11899 ft 261 kts 144°
2026-05-05 19:01 47.62638 8.89827 11902 ft 263 kts 136°
2026-05-05 19:01 47.61533 8.91950 11903 ft 266 kts 125°
2026-05-05 19:01 47.60663 8.94384 11900 ft 268 kts 121°
2026-05-05 19:01 47.59811 8.96836 11901 ft 267 kts 121°
2026-05-05 19:02 47.58954 8.99280 11898 ft 267 kts 122°
2026-05-05 19:02 47.58096 9.01727 11894 ft 267 kts 122°
2026-05-05 19:02 47.57312 9.04228 11894 ft 270 kts 112°
2026-05-05 19:02 47.56862 9.06947 11896 ft 274 kts 104°
2026-05-05 19:03 47.56594 9.09744 11891 ft 275 kts 101°
2026-05-05 19:03 47.56388 9.12566 11888 ft 276 kts 100°
2026-05-05 19:03 47.56187 9.15389 11893 ft 275 kts 101°
2026-05-05 19:03 47.56044 9.18219 11891 ft 279 kts 89°
2026-05-05 19:04 47.56612 9.20984 11890 ft 288 kts 61°
2026-05-05 19:04 47.57994 9.23084 11888 ft 294 kts 32°
2026-05-05 19:04 47.59936 9.24004 11882 ft 297 kts
2026-05-05 19:04 47.61931 9.23442 11884 ft 293 kts 330°
2026-05-05 19:05 47.63476 9.21573 11882 ft 285 kts 300°
2026-05-05 19:05 47.64224 9.18936 11884 ft 275 kts 272°
2026-05-05 19:05 47.64100 9.16182 11888 ft 266 kts 247°
2026-05-05 19:05 47.63210 9.13852 11883 ft 259 kts 223°
2026-05-05 19:06 47.61788 9.12274 11885 ft 256 kts 208°
2026-05-05 19:06 47.60231 9.10993 11886 ft 256 kts 206°
2026-05-05 19:06 47.58726 9.09656 11880 ft 258 kts 218°
2026-05-05 19:06 47.57633 9.07547 11888 ft 264 kts 243°
2026-05-05 19:07 47.57279 9.04858 11878 ft 272 kts 268°
2026-05-05 19:07 47.57664 9.02110 11486 ft 278 kts 291°
2026-05-05 19:07 47.58833 8.99814 11078 ft 284 kts 319°
2026-05-05 19:07 47.60590 8.98493 10708 ft 287 kts 347°
2026-05-05 19:08 47.62562 8.98470 10358 ft 285 kts 15°
2026-05-05 19:08 47.64306 8.99750 10021 ft 279 kts 44°
2026-05-05 19:08 47.65460 9.01983 9662 ft 271 kts 70°
2026-05-05 19:08 47.65857 9.04613 9233 ft 264 kts 96°
2026-05-05 19:09 47.65390 9.07124 9017 ft 247 kts 126°
2026-05-05 19:09 47.64185 9.08821 8883 ft 239 kts 156°
2026-05-05 19:09 47.62589 9.09287 8876 ft 237 kts 187°
2026-05-05 19:09 47.61060 9.08421 8878 ft 240 kts 217°
2026-05-05 19:10 47.60048 9.06460 8885 ft 246 kts 248°
2026-05-05 19:10 47.59853 9.03944 8894 ft 253 kts 278°
2026-05-05 19:10 47.60428 9.01459 8887 ft 258 kts 292°
2026-05-05 19:10 47.61202 8.99054 8886 ft 259 kts 294°
2026-05-05 19:11 47.61977 8.96650 8888 ft 258 kts 287°
2026-05-05 19:11 47.62189 8.94081 8768 ft 249 kts 258°
2026-05-05 19:11 47.61550 8.91787 8395 ft 240 kts 227°
2026-05-05 19:11 47.60251 8.90382 8023 ft 235 kts 197°
2026-05-05 19:12 47.58653 8.89938 7610 ft 235 kts 180°
2026-05-05 19:12 47.57045 8.90289 7202 ft 235 kts 166°
2026-05-05 19:12 47.55481 8.90913 6973 ft 227 kts 164°
2026-05-05 19:12 47.54005 8.91528 6788 ft 216 kts 164°
2026-05-05 19:13 47.52569 8.92128 6487 ft 213 kts 163°
2026-05-05 19:13 47.51190 8.92700 6358 ft 198 kts 163°
2026-05-05 19:13 47.49905 8.93227 6113 ft 192 kts 164°
2026-05-05 19:13 47.48627 8.93751 5765 ft 190 kts 163°
2026-05-05 19:14 47.47348 8.94266 5423 ft 190 kts 166°
2026-05-05 19:14 47.46045 8.94145 5079 ft 192 kts 203°
2026-05-05 19:14 47.45069 8.92829 5002 ft 195 kts 239°
2026-05-05 19:14 47.44685 8.90911 5017 ft 197 kts 261°
2026-05-05 19:15 47.44511 8.88900 5011 ft 198 kts 261°
2026-05-05 19:15 47.44335 8.86880 5008 ft 198 kts 260°
2026-05-05 19:15 47.44160 8.84857 5009 ft 198 kts 261°
2026-05-05 19:15 47.43986 8.82863 5013 ft 198 kts 261°
2026-05-05 19:16 47.43933 8.80843 4967 ft 201 kts 274°
2026-05-05 19:16 47.44078 8.78793 4625 ft 200 kts 275°
2026-05-05 19:16 47.44227 8.76784 4310 ft 191 kts 276°
2026-05-05 19:16 47.44368 8.74879 4016 ft 184 kts 276°
2026-05-05 19:17 47.44506 8.73023 3745 ft 178 kts 276°
2026-05-05 19:17 47.44638 8.71246 3522 ft 172 kts 276°
2026-05-05 19:17 47.44765 8.69512 3262 ft 168 kts 276°
2026-05-05 19:17 47.44887 8.67829 3003 ft 159 kts 276°
2026-05-05 19:18 47.45001 8.66246 2787 ft 152 kts 276°
2026-05-05 19:18 47.45110 8.64719 2559 ft 148 kts 276°
2026-05-05 19:18 47.45216 8.63214 2342 ft 146 kts 276°
2026-05-05 19:18 47.45320 8.61746 2145 ft 146 kts 276°
2026-05-05 19:19 47.45426 8.60263 1935 ft 145 kts 276°
2026-05-05 19:19 47.45540 8.58788 1743 ft 145 kts 276°
2026-05-05 19:19 47.45640 8.57315 1513 ft 143 kts 276°
2026-05-05 19:19 47.45744 8.55904 1412 ft 131 kts 274°
2026-05-05 19:20 47.45805 8.55002 1398 ft 52 kts 276°
2026-05-05 19:20 47.45822 8.54569 1389 ft 37 kts 262°
2026-05-05 19:20 47.45750 8.54263 1382 ft 21 kts 234°
2026-05-05 19:20 47.45655 8.54220 1382 ft 13 kts 162°
2026-05-05 19:21 47.45612 8.54289 1385 ft 8 kts 112°
2026-05-05 19:21 47.45583 8.54411 1387 ft 15 kts 109°
2026-05-05 19:21 47.45549 8.54562 1390 ft 20 kts 108°
2026-05-05 19:21 47.45508 8.54760 1398 ft 17 kts 107°
2026-05-05 19:22 47.45476 8.54897 1396 ft 11 kts 109°
2026-05-05 19:22 47.45456 8.54974 1401 ft 8 kts 111°
2026-05-05 19:22 47.45440 8.55076 1396 ft 3 kts 50°
2026-05-05 19:22 47.45456 8.55115 1402 ft 8 kts 90°
2026-05-05 19:23 47.45422 8.55189 1401 ft 8 kts 125°
2026-05-05 19:23 47.45407 8.55223 1405 ft 0 kts 121°
2026-05-05 19:23 47.45405 8.55226 1404 ft 3 kts 121°
2026-05-05 19:23 47.45404 8.55349 1407 ft 18 kts 53°
2026-05-05 19:24 47.45488 8.55429 1405 ft 11 kts 30°
2026-05-05 19:24 47.45524 8.55517 1405 ft 13 kts 91°
2026-05-05 19:24 47.45512 8.55641 1412 ft 8 kts 118°
2026-05-05 19:24 47.45482 8.55643 1411 ft 7 kts 187°
2026-05-05 19:25 47.45441 8.55636 1407 ft 0 kts 186°
2026-05-05 19:25 47.45435 8.55635 1407 ft 1 kts 186°
2026-05-05 19:25 47.45434 8.55635 1407 ft 0 kts 186°